Location: Carri�res
(48.9069°N, 2.1792°E)
Time: 13:52:59
(UTC+00:00)

Meteor 1-21 Rocket - Pass Details

Date: 17 January 2021
Orbit: 834 x 907 km, 81.2° (Epoch: 25 February)

Event Time Altitude Azimuth Distance (km) Brightness Sun altitude
Rises 18:29:51 0° 171° (S) 3,375 7.3 -19.9°
Reaches altitude 10° 18:32:20 10° 165° (SSE) 2,441 6.5 -20.3°
Maximum altitude 18:37:35 47° 94° (E) 1,104 4.3 -21.2°
Enters shadow 18:38:23 43° 68° (ENE) 1,155 4.4 -21.3°
